GW5323 Weather Reports


Display with metric or nautical units.
time (UTC)temp
F
wind
direction
speed
MPH
gust
MPH
rain 1hr
in
rain 24hr
in
rain mn
in
humidity
%
barometer
mb
20260503184258 56 73 9.0 19.0 0.00 0.00 0.00 41 1017.0
20260503183753 55 67 9.0 15.0 0.00 0.00 0.00 41 1017.3
20260503183252 54 47 8.0 14.0 0.00 0.00 0.00 42 1017.2
20260503182749 54 42 4.0 19.0 0.00 0.00 0.00 45 1017.1
20260503182248 56 61 4.0 7.0 0.00 0.00 0.00 50 1017.1
20260503181744 55 29 8.0 9.0 0.00 0.00 0.00 40 1017.3
20260503181241 54 13 4.0 19.0 0.00 0.00 0.00 47 1017.2
20260503180737 54 28 10.0 18.0 0.00 0.00 0.00 43 1017.4
20260503180236 54 116 13.0 13.0 0.00 0.00 0.00 42 1017.3
20260503175732 53 32 6.0 12.0 0.00 0.00 0.00 42 1017.4
20260503175230 55 48 10.0 12.0 0.00 0.00 0.00 42 1017.3
20260503174726 53 35 3.0 14.0 0.00 0.00 0.00 45 1017.6
20260503174224 53 43 8.0 10.0 0.00 0.00 0.00 44 1017.6
20260503173724 54 36 5.0 12.0 0.00 0.00 0.00 44 1017.3
20260503173221 55 61 8.0 9.0 0.00 0.00 0.00 44 1017.6
20260503172718 52 52 6.0 11.0 0.00 0.00 0.00 43 1017.6
20260503172215 53 55 10.0 14.0 0.00 0.00 0.00 43 1017.4
20260503171711 53 63 6.0 12.0 0.00 0.00 0.00 44 1017.6
20260503171208 54 109 13.0 15.0 0.00 0.00 0.00 45 1017.6
20260503170705 53 69 6.0 10.0 0.00 0.00 0.00 44 1017.6
20260503170202 54 85 9.0 12.0 0.00 0.00 0.00 45 1017.7
20260503160124 50 102 8.0 15.0 0.00 0.00 0.00 43 1018.3
20260503150553 49 113 3.0 12.0 0.00 0.00 0.00 49 1018.9
20260503130943 43 99 6.0 9.0 0.00 0.00 0.00 64 1019.2
20260503130441 42 79 5.0 8.0 0.00 0.00 0.00 64 1019.2
20260503110331 34 56 2.0 4.0 0.00 0.00 0.00 78 1018.5
20260503100257 32 247 1.0 3.0 0.00 0.00 0.00 82 1017.9
20260503090217 34 345 1.0 3.0 0.00 0.00 0.00 76 1017.9
20260503081144 34 222 1.0 2.0 0.00 0.00 0.00 74 1017.8
20260503080640 35 105 2.0 3.0 0.00 0.00 0.00 74 1017.6
20260503080137 34 302 2.0 2.0 0.00 0.00 0.00 74 1017.5
20260503072614 35 29 1.0 2.0 0.00 0.00 0.00 73 1017.4
20260503072111 35 103 0.0 5.0 0.00 0.00 0.00 72 1017.4
20260503071608 35 61 2.0 2.0 0.00 0.00 0.00 72 1017.5
20260503071104 35 313 2.0 3.0 0.00 0.00 0.00 72 1017.3
20260503070601 35 144 4.0 4.0 0.00 0.00 0.00 73 1017.2
20260503055020 36 29 1.0 2.0 0.00 0.00 0.00 69 1017.4
20260503054516 36 103 2.0 3.0 0.00 0.00 0.00 69 1017.4
20260503054014 37 147 0.0 2.0 0.00 0.00 0.00 68 1017.4
20260503053512 37 72 3.0 4.0 0.00 0.00 0.00 67 1017.5
20260503053009 38 19 4.0 6.0 0.00 0.00 0.00 65 1017.5
20260503052505 38 110 1.0 4.0 0.00 0.00 0.00 66 1017.5
20260503052002 38 62 6.0 7.0 0.00 0.00 0.00 65 1017.5
20260503051457 38 77 1.0 4.0 0.00 0.00 0.00 68 1017.6
20260503050956 38 21 2.0 2.0 0.00 0.00 0.00 67 1017.5
20260503050451 39 92 2.0 4.0 0.00 0.00 0.00 66 1017.5
20260503045949 39 72 3.0 5.0 0.00 0.00 0.00 67 1017.7
20260503045446 39 66 3.0 6.0 0.00 0.00 0.00 67 1017.5
20260503044942 39 36 3.0 4.0 0.00 0.00 0.00 69 1017.6
20260503044439 39 40 3.0 6.0 0.00 0.00 0.00 67 1017.6
20260503043937 39 47 3.0 6.0 0.00 0.00 0.00 65 1017.5
20260503043433 39 95 4.0 6.0 0.00 0.00 0.00 66 1017.5
20260503042929 39 112 5.0 10.0 0.00 0.00 0.00 63 1017.6
20260503042426 39 103 5.0 7.0 0.00 0.00 0.00 63 1017.6
20260503041923 39 35 3.0 5.0 0.00 0.00 0.00 65 1017.5
20260503041420 39 167 0.0 4.0 0.00 0.00 0.00 64 1017.5
20260503040917 40 6 4.0 7.0 0.00 0.00 0.00 64 1017.6
20260503040414 40 105 2.0 6.0 0.00 0.00 0.00 63 1017.5
20260503035912 40 198 0.0 2.0 0.00 0.02 0.02 63 1017.4
20260503035409 40 80 3.0 3.0 0.00 0.02 0.02 64 1017.7
20260503034906 40 91 2.0 3.0 0.00 0.02 0.02 64 1017.5
20260503034404 40 190 2.0 4.0 0.00 0.02 0.02 66 1017.6
20260503033901 40 186 1.0 2.0 0.00 0.02 0.02 66 1017.7
20260503033358 40 128 1.0 7.0 0.00 0.02 0.02 64 1017.7
20260503032856 40 96 2.0 4.0 0.00 0.02 0.02 65 1017.6
20260503032355 40 358 1.0 3.0 0.00 0.02 0.02 66 1017.8
20260503031851 40 27 1.0 2.0 0.00 0.02 0.02 66 1017.7
20260503031349 40 67 2.0 3.0 0.00 0.02 0.02 65 1018.1
20260503030845 41 45 5.0 5.0 0.00 0.02 0.02 64 1017.9
20260503030341 40 93 6.0 10.0 0.00 0.02 0.02 65 1017.9
20260503025838 40 91 2.0 4.0 0.00 0.02 0.02 67 1017.9
20260503025336 40 71 2.0 8.0 0.00 0.02 0.02 68 1017.9
20260503024832 40 46 2.0 4.0 0.00 0.02 0.02 67 1017.9
20260503024329 41 53 2.0 4.0 0.00 0.02 0.02 69 1018.1
20260503023826 41 98 2.0 12.0 0.00 0.02 0.02 66 1018.1
20260503023323 41 95 2.0 5.0 0.00 0.02 0.02 68 1017.9
20260503022820 41 86 3.0 5.0 0.00 0.02 0.02 67 1018.1
20260503022320 41 87 3.0 4.0 0.00 0.02 0.02 70 1018.1
20260503021816 41 56 3.0 4.0 0.00 0.02 0.02 70 1018.1
20260503021313 41 60 2.0 6.0 0.00 0.02 0.02 70 1018.1
20260503020810 41 72 2.0 4.0 0.00 0.02 0.02 69 1017.9
20260503020308 41 18 2.0 4.0 0.00 0.02 0.02 70 1018.0
20260503015804 41 89 2.0 5.0 0.00 0.02 0.02 68 1018.1
20260503015301 41 31 2.0 2.0 0.00 0.02 0.02 69 1017.7
20260503014757 41 75 4.0 5.0 0.00 0.02 0.02 67 1017.8
20260503014255 41 72 3.0 5.0 0.00 0.02 0.02 67 1017.7
20260503013752 41 103 4.0 4.0 0.00 0.02 0.02 70 1017.8
20260503013249 41 92 4.0 6.0 0.00 0.02 0.02 69 1017.8
20260503012746 41 92 4.0 9.0 0.00 0.02 0.02 70 1017.9
20260503012244 41 269 1.0 2.0 0.00 0.02 0.02 71 1017.8
20260503011740 41 43 2.0 4.0 0.00 0.02 0.02 74 1017.7
20260503011237 41 110 6.0 6.0 0.00 0.02 0.02 75 1017.9
20260503010733 41 269 0.0 1.0 0.00 0.02 0.02 74 1017.6
20260503010230 41 119 3.0 4.0 0.00 0.02 0.02 73 1017.7
20260503005728 41 47 4.0 6.0 0.00 0.02 0.02 76 1017.6
20260503005225 40 62 4.0 5.0 0.00 0.02 0.02 78 1017.6
20260503004721 41 148 0.0 2.0 0.00 0.02 0.02 78 1017.5
20260503004220 41 113 0.0 3.0 0.00 0.02 0.02 77 1017.5
20260503003716 41 69 1.0 3.0 0.00 0.02 0.02 76 1017.3
20260503003214 41 94 2.0 4.0 0.00 0.02 0.02 75 1017.2
20260503002710 41 47 0.0 3.0 0.00 0.02 0.02 77 1017.4
20260503002207 41 129 3.0 6.0 0.00 0.02 0.02 77 1017.1
20260503001703 42 113 3.0 5.0 0.00 0.02 0.02 77 1017.1
20260503001200 42 122 2.0 3.0 0.00 0.02 0.02 76 1017.4
20260503000658 42 66 0.0 3.0 0.00 0.02 0.02 76 1017.2
20260503000155 42 96 3.0 4.0 0.00 0.02 0.02 77 1017.2
20260502235651 42 33 4.0 5.0 0.00 0.02 0.02 75 1017.1
20260502235149 42 30 3.0 4.0 0.00 0.02 0.02 75 1017.2
20260502234646 42 28 3.0 8.0 0.00 0.02 0.02 74 1017.2
20260502234143 42 349 1.0 5.0 0.00 0.02 0.02 74 1017.1
20260502233639 42 99 2.0 4.0 0.00 0.02 0.02 76 1017.1
20260502233135 42 32 2.0 4.0 0.00 0.02 0.02 76 1017.0
20260502232631 42 37 2.0 3.0 0.00 0.02 0.02 74 1017.0
20260502232129 42 24 2.0 2.0 0.00 0.02 0.02 74 1016.9
20260502231625 42 56 2.0 4.0 0.00 0.02 0.02 72 1016.8
20260502231123 42 38 6.0 9.0 0.00 0.02 0.02 71 1017.0
20260502230621 43 58 3.0 6.0 0.00 0.02 0.02 72 1017.0
20260502230120 43 42 2.0 7.0 0.00 0.02 0.02 71 1017.1
20260502225614 43 58 5.0 5.0 0.00 0.02 0.02 71 1016.9
20260502225112 43 62 2.0 7.0 0.00 0.02 0.02 70 1016.9
20260502224608 43 79 2.0 6.0 0.00 0.02 0.02 70 1016.8
20260502224105 43 80 1.0 3.0 0.00 0.02 0.02 70 1016.8
20260502223603 43 65 1.0 4.0 0.00 0.02 0.02 70 1016.8
20260502223101 43 94 2.0 5.0 0.00 0.02 0.02 71 1016.7
20260502222558 44 348 4.0 6.0 0.00 0.02 0.02 70 1016.8
20260502222054 44 70 3.0 5.0 0.00 0.02 0.02 70 1016.7
20260502221550 44 28 3.0 8.0 0.00 0.02 0.02 70 1016.7
20260502221048 44 55 4.0 8.0 0.00 0.02 0.02 71 1016.9
20260502220543 44 26 5.0 7.0 0.00 0.02 0.02 72 1016.9
20260502220040 44 53 2.0 4.0 0.00 0.02 0.02 73 1016.7
20260502215537 44 27 4.0 6.0 0.00 0.02 0.02 70 1016.8
20260502215034 44 79 3.0 6.0 0.00 0.02 0.02 71 1016.7
20260502214531 44 31 3.0 4.0 0.00 0.02 0.02 74 1016.6
20260502214029 44 79 2.0 3.0 0.00 0.02 0.02 72 1016.7
20260502213525 44 81 3.0 4.0 0.00 0.02 0.02 73 1016.6
20260502213023 45 177 3.0 3.0 0.00 0.02 0.02 72 1016.6
20260502212522 45 30 3.0 4.0 0.00 0.02 0.02 74 1016.7
20260502212019 44 71 3.0 8.0 0.00 0.02 0.02 77 1016.4
20260502211514 43 106 1.0 5.0 0.00 0.02 0.02 76 1016.6
20260502211012 43 180 0.0 5.0 0.00 0.02 0.02 77 1016.6
20260502210509 43 74 5.0 6.0 0.00 0.02 0.02 78 1016.5
20260502210006 43 101 5.0 11.0 0.00 0.02 0.02 77 1016.6
20260502205502 43 95 4.0 5.0 0.00 0.02 0.02 76 1016.4
20260502204959 43 102 4.0 4.0 0.00 0.02 0.02 78 1016.6
20260502204456 42 115 4.0 9.0 0.00 0.02 0.02 77 1016.6
20260502203954 43 98 2.0 4.0 0.02 0.02 0.02 79 1016.5
20260502203451 43 104 8.0 8.0 0.02 0.02 0.02 79 1016.7
20260502202947 43 78 5.0 6.0 0.00 0.02 0.02 75 1016.6
20260502202444 43 78 5.0 6.0 0.00 0.02 0.02 75 1016.6
20260502201942 44 109 5.0 8.0 0.00 0.02 0.02 74 1016.5
20260502201438 44 109 5.0 8.0 0.00 0.02 0.02 74 1016.7
20260502200935 44 67 2.0 8.0 0.00 0.02 0.02 74 1016.7
20260502200430 44 91 5.0 7.0 0.00 0.02 0.02 72 1016.6
20260502195928 44 73 4.0 6.0 0.00 0.02 0.02 72 1016.7
20260502195425 44 202 0.0 8.0 0.00 0.02 0.02 74 1016.7
20260502194922 44 116 7.0 9.0 0.00 0.02 0.02 75 1016.5
20260502194419 44 89 5.0 6.0 0.00 0.02 0.02 73 1016.8
20260502193915 44 94 4.0 7.0 0.00 0.02 0.02 71 1016.8
20260502193412 44 98 4.0 9.0 0.00 0.02 0.02 70 1016.8
20260502192907 44 91 4.0 9.0 0.00 0.02 0.02 68 1016.9
20260502192404 45 73 5.0 10.0 0.00 0.02 0.02 66 1016.8
20260502191902 45 29 0.0 3.0 0.00 0.02 0.02 67 1017.0
20260502191359 45 50 3.0 4.0 0.00 0.02 0.02 66 1016.8
20260502190857 46 65 4.0 8.0 0.00 0.02 0.02 62 1017.1
20260502190354 46 107 4.0 6.0 0.00 0.02 0.02 60 1016.8
20260502185850 47 94 1.0 6.0 0.00 0.02 0.02 59 1016.9
20260502185345 47 95 3.0 4.0 0.00 0.02 0.02 58 1016.9
20260502184843 47 59 2.0 7.0 0.00 0.02 0.02 58 1017.0